Wind_Speed
17 18 19 19 20 20 20 20 20 20 19 19 19 18 17 15 13 12 11 10 9 9 10 11 13 16 18 22 24 27 30 31 33 36 39 40 42 43 44 44 44 45 44
17 18 18 19 20 20 20 20 19 19 19 19 18 18 17 16 15 13 13 12 11 10 10 10 11 13 15 18 21 24 27 29 32 36 39 40 43 44 44 44 45 45 46
17 17 18 19 19 19 20 20 20 19 19 19 18 18 17 16 16 15 14 13 12 11 10 10 11 12 14 16 18 21 24 27 30 34 37 40 42 44 45 45 45 45 46
17 17 18 19 19 19 19 20 20 20 19 19 18 18 17 17 17 16 15 14 13 12 11 10 10 11 13 15 16 19 21 24 26 30 34 38 41 43 45 46 46 47 47
17 17 18 18 19 19 19 20 20 20 20 19 19 18 18 17 17 17 16 15 14 13 12 11 11 11 12 14 15 17 19 21 23 26 30 34 38 41 43 45 47 47 48
16 17 18 18 19 19 19 20 20 21 21 20 19 18 18 18 17 17 17 16 15 14 13 13 12 12 12 13 13 15 17 18 20 22 25 29 33 36 40 43 45 47 47
16 17 18 18 19 20 20 20 20 21 21 20 20 19 18 18 17 17 17 17 16 15 14 14 13 13 13 13 14 14 15 16 18 19 21 23 27 31 34 37 41 43 45
16 17 18 19 19 20 21 21 21 21 21 20 20 20 19 18 17 17 17 17 16 15 15 15 14 14 13 13 14 14 15 15 16 18 19 21 23 26 29 32 35 39 42
16 17 18 19 20 21 22 22 22 22 22 21 21 20 20 19 18 17 17 17 16 16 16 15 15 15 14 14 14 14 14 14 15 16 18 20 21 23 26 28 30 32 35
16 17 18 19 21 22 23 23 23 23 22 22 21 21 20 19 19 18 18 17 17 17 16 16 15 15 15 15 14 14 14 14 14 15 16 18 20 22 23 25 27 29 31
17 18 19 20 21 23 24 24 23 23 23 22 22 21 20 20 19 19 18 18 18 17 17 17 16 16 15 15 15 15 15 14 15 15 15 16 18 21 22 24 26 27 29
18 19 20 21 22 23 24 24 24 24 24 23 22 22 21 20 20 20 19 19 18 18 18 18 17 17 16 16 15 15 15 16 15 15 16 16 17 19 21 23 24 26 28
19 20 21 22 23 24 25 25 25 25 25 24 24 23 22 22 21 21 21 20 19 18 18 18 18 17 17 17 16 16 16 16 16 16 16 17 17 18 19 21 23 25 26
21 22 23 23 24 25 26 26 26 26 26 26 25 24 23 23 22 22 22 21 20 20 19 19 19 18 18 18 17 18 17 17 17 17 17 17 18 18 19 20 21 22 24
22 23 24 25 26 27 27 28 28 27 27 27 26 25 25 24 24 23 23 22 21 21 20 20 20 20 19 19 19 19 19 19 19 18 18 18 18 19 20 20 21 21 23
24 24 25 26 27 28 29 29 29 29 28 27 27 26 26 25 25 25 24 23 23 22 22 22 22 21 21 20 20 20 20 20 20 20 20 20 20 21 22 22 22 22 23
26 26 27 28 29 30 31 31 31 31 30 29 28 27 26 26 26 26 25 24 24 23 23 23 23 22 22 22 22 22 22 22 22 22 22 22 22 22 23 23 24 24 25
28 28 29 30 31 32 32 33 33 33 32 31 30 29 28 27 27 26 26 25 25 24 24 24 24 24 24 24 24 25 25 25 24 24 24 24 24 24 25 25 25 26 26
30 31 31 32 33 34 34 34 34 34 34 33 32 31 30 29 28 28 27 26 26 26 26 26 26 26 26 27 27 27 27 28 28 28 28 27 27 27 27 28 28 28 28
33 34 34 35 35 36 36 36 36 35 35 34 33 33 32 31 30 29 29 28 28 28 28 28 29 29 29 30 30 30 30 31 31 31 31 32 32 32 31 31 31 31 31
36 37 37 37 37 38 38 38 38 37 37 36 35 34 33 32 32 31 30 30 30 30 30 31 31 31 32 32 33 34 34 35 35 35 35 36 36 36 36 36 36 35 35
39 40 40 40 40 40 40 40 40 39 38 37 36 35 35 34 33 33 33 33 33 33 33 33 34 34 35 36 36 37 38 38 39 40 40 40 40 40 40 40 40 40 40
42 43 43 43 43 43 42 42 41 40 39 38 37 37 36 36 35 35 35 35 35 35 36 36 37 38 39 40 41 41 42 43 43 44 44 45 45 45 45 45 45 44 44
45 45 45 45 45 45 44 44 43 42 41 40 39 39 38 38 37 37 37 37 37 38 39 40 41 42 43 44 45 45 46 47 48 48 48 48 49 49 49 49 49 49 48
48 48 47 47 47 46 46 45 44 43 42 41 40 40 39 39 38 38 38 39 39 40 41 42 43 44 46 47 48 49 50 50 51 51 51 52 52 52 53 53 53 53 52
49 49 49 48 48 48 47 46 45 44 42 42 41 41 40 40 39 39 40 40 41 42 44 45 46 47 48 49 50 51 52 53 54 55 55 55 55 55 55 56 56 56 55
Wind_Direction
353 355 357 359 360 0 1 2 3 4 5 6 6 6 5 4 1 357 348 336 322 306 293 280 267 259 254 251 248 247 245 243 239 238 239 238 238 236 236 237 237 237 238
349 351 354 356 357 358 360 0 1 1 2 2 3 4 3 1 359 356 350 342 332 318 304 292 281 270 262 257 253 250 248 245 242 240 240 239 238 238 238 238 238 238 238
346 348 350 352 354 355 357 357 358 358 358 358 358 359 359 358 358 356 352 346 339 329 316 304 293 282 273 266 261 256 253 250 247 243 242 240 239 238 238 237 237 238 239
345 346 348 350 352 352 354 354 354 354 354 354 354 353 353 355 355 353 352 351 345 338 328 317 304 294 285 276 270 265 261 257 251 247 244 242 240 240 239 239 238 239 239
343 346 347 349 350 351 351 352 352 352 351 351 350 349 348 349 350 351 349 348 345 341 335 329 319 307 297 288 280 275 270 265 257 252 248 245 244 242 242 241 240 240 240
340 343 345 347 348 349 349 349 349 349 348 347 347 346 344 344 345 347 346 344 342 340 336 332 328 320 310 302 293 286 280 272 264 258 253 249 248 247 246 244 243 242 243
337 340 342 343 344 345 346 346 347 347 346 345 344 343 341 339 340 341 341 340 339 338 336 332 329 323 315 308 301 294 290 282 271 263 258 255 253 251 250 248 246 245 245
332 336 338 341 342 343 343 343 343 344 343 342 342 341 339 337 335 335 337 337 337 335 334 332 329 326 321 314 308 301 294 288 278 270 264 260 258 256 254 252 251 249 248
327 331 333 337 339 340 341 340 340 340 340 339 337 337 336 335 333 332 331 332 333 334 334 331 328 325 323 318 315 310 302 295 286 278 272 266 263 260 258 256 253 251 250
321 325 329 332 334 336 337 338 338 337 336 336 336 334 333 332 331 330 328 327 327 329 330 330 329 325 322 320 317 314 310 303 295 287 280 272 267 262 260 258 256 254 252
315 320 324 327 329 332 334 334 335 334 333 333 332 331 330 329 328 327 327 325 323 324 325 326 326 325 322 320 318 315 312 308 302 295 287 280 273 267 263 262 260 257 254
309 315 319 323 326 328 329 330 330 330 330 329 328 327 325 325 325 324 323 321 320 320 321 322 321 321 320 319 317 315 312 309 305 299 292 286 281 274 270 268 265 260 256
305 310 314 319 322 325 326 327 326 326 326 325 324 322 320 320 320 321 320 319 316 315 316 317 317 316 316 314 313 312 312 310 307 301 297 292 287 282 276 274 271 265 261
300 306 311 315 318 321 322 324 324 323 322 321 320 318 316 315 315 316 316 316 315 312 310 311 311 310 310 310 309 307 307 307 305 302 298 294 290 286 282 278 274 270 266
297 303 308 312 314 317 319 320 321 320 319 318 317 315 313 311 311 311 312 312 311 309 308 307 307 306 305 304 305 304 303 302 301 299 296 293 291 288 285 284 280 275 271
294 299 304 308 311 313 315 316 317 317 316 314 313 312 310 309 308 308 308 307 307 306 304 304 303 303 303 303 302 302 302 301 299 297 295 292 291 289 287 285 283 281 277
291 296 300 304 307 309 311 312 313 314 313 312 310 309 307 306 306 305 305 304 303 303 302 301 301 301 301 300 300 300 300 299 298 297 295 293 290 289 287 286 284 282 279
288 293 297 301 304 306 308 309 310 311 311 310 308 306 305 304 304 303 302 301 301 300 299 298 298 298 298 299 298 298 298 297 296 295 293 292 291 289 286 285 283 283 281
286 290 294 298 301 303 304 305 306 307 308 307 306 304 303 302 301 300 299 298 298 297 297 296 296 296 296 296 296 296 296 296 295 294 292 290 289 288 286 284 282 281 280
285 289 292 295 298 300 301 302 303 304 304 304 303 302 301 300 299 298 297 296 296 296 295 295 295 295 294 294 294 294 294 294 294 293 292 290 289 287 285 283 281 279 278
284 287 290 293 296 298 299 300 301 301 301 301 301 300 299 298 297 296 295 294 293 294 294 294 294 294 293 293 293 293 292 292 292 291 290 289 287 286 284 283 281 279 277
282 286 288 291 293 295 297 297 298 299 298 298 298 297 297 296 295 294 293 292 292 292 293 293 293 293 292 292 292 292 291 291 290 289 288 287 285 283 282 281 280 278 276
281 284 287 289 291 293 295 296 296 296 296 295 295 295 295 294 293 292 291 291 291 291 292 292 293 293 293 293 293 292 291 290 289 288 287 286 284 282 281 279 278 277 275
280 283 285 287 289 292 293 294 294 294 293 293 293 293 293 293 292 291 290 290 290 290 291 292 293 294 294 294 294 293 292 291 290 289 287 285 283 282 280 278 277 275 274
279 281 283 286 288 290 291 292 292 292 291 291 292 292 292 292 291 290 289 289 289 290 291 293 294 294 295 295 295 294 294 293 292 291 289 287 285 283 281 279 277 275 272
277 279 281 283 286 288 289 290 290 290 290 290 291 291 291 291 290 289 289 289 290 291 292 293 294 295 296 296 297 296 295 294 293 292 290 289 287 285 282 280 278 275 272
Height
5817 5814 5810 5807 5803 5800 5796 5792 5788 5784 5781 5777 5774 5770 5767 5764 5762 5760 5758 5756 5755 5754 5753 5753 5753 5754 5755 5757 5759 5761 5764 5766 5770 5773 5775 5779 5783 5787 5792 5796 5800 5804 5808
5816 5813 5810 5806 5803 5799 5795 5792 5788 5784 5781 5777 5774 5770 5767 5764 5761 5759 5756 5754 5752 5751 5750 5749 5749 5749 5750 5751 5752 5754 5756 5758 5761 5763 5766 5769 5773 5777 5781 5786 5790 5794 5798
5814 5811 5808 5805 5802 5798 5795 5791 5787 5784 5780 5777 5773 5770 5767 5764 5761 5758 5755 5752 5750 5748 5747 5746 5745 5745 5744 5745 5746 5747 5748 5750 5751 5754 5756 5758 5762 5766 5770 5774 5778 5783 5787
5813 5810 5807 5804 5800 5797 5794 5790 5786 5783 5779 5776 5772 5769 5766 5763 5759 5756 5753 5750 5748 5746 5744 5743 5741 5741 5740 5740 5740 5740 5740 5741 5742 5744 5746 5749 5752 5755 5759 5763 5768 5772 5776
5811 5808 5805 5802 5799 5796 5792 5789 5785 5782 5778 5774 5771 5768 5764 5761 5758 5755 5752 5749 5746 5744 5742 5740 5738 5737 5736 5735 5734 5734 5734 5734 5734 5735 5737 5739 5742 5745 5749 5752 5757 5760 5764
5808 5806 5803 5800 5797 5794 5791 5787 5784 5780 5776 5773 5769 5766 5763 5760 5756 5753 5750 5747 5744 5742 5739 5737 5735 5733 5732 5730 5729 5728 5728 5727 5727 5728 5729 5731 5733 5736 5738 5742 5745 5750 5755
5806 5803 5801 5798 5795 5792 5788 5785 5782 5778 5774 5771 5767 5764 5761 5757 5754 5751 5748 5745 5742 5739 5737 5735 5733 5731 5728 5727 5725 5724 5723 5721 5721 5722 5722 5723 5725 5727 5730 5733 5735 5738 5743
5803 5801 5798 5795 5792 5789 5786 5782 5779 5775 5772 5768 5765 5762 5758 5755 5752 5749 5746 5743 5740 5737 5735 5732 5730 5728 5725 5723 5721 5720 5718 5717 5716 5716 5717 5717 5718 5719 5721 5724 5725 5729 5732
5800 5797 5795 5792 5789 5786 5783 5779 5776 5772 5769 5766 5762 5759 5755 5752 5749 5746 5743 5740 5738 5735 5732 5730 5727 5724 5722 5720 5718 5716 5714 5713 5712 5711 5711 5711 5712 5713 5714 5715 5717 5719 5722
5796 5794 5791 5789 5786 5783 5779 5776 5772 5769 5766 5762 5759 5755 5752 5749 5746 5743 5740 5738 5735 5732 5730 5727 5724 5722 5719 5717 5715 5713 5711 5709 5708 5707 5706 5706 5706 5706 5707 5708 5709 5711 5713
5792 5790 5787 5785 5782 5779 5776 5772 5769 5765 5762 5759 5755 5752 5749 5746 5743 5740 5737 5734 5732 5729 5726 5724 5721 5719 5716 5714 5712 5709 5707 5706 5704 5703 5702 5701 5701 5701 5701 5701 5702 5703 5705
5787 5785 5783 5780 5778 5775 5771 5768 5765 5762 5758 5755 5751 5748 5745 5742 5739 5736 5733 5731 5728 5725 5723 5720 5718 5715 5713 5711 5708 5706 5704 5702 5700 5699 5697 5696 5695 5695 5695 5695 5695 5696 5697
5782 5780 5778 5775 5773 5770 5767 5763 5760 5757 5754 5750 5747 5744 5740 5737 5735 5732 5729 5727 5724 5721 5719 5716 5714 5711 5709 5707 5705 5703 5700 5698 5696 5695 5693 5692 5690 5689 5689 5689 5688 5689 5689
5776 5774 5772 5770 5767 5764 5761 5758 5755 5752 5748 5745 5742 5738 5735 5732 5730 5727 5724 5722 5719 5717 5714 5712 5709 5707 5705 5703 5701 5699 5696 5694 5692 5690 5689 5687 5686 5684 5683 5682 5682 5682 5682
5770 5768 5766 5764 5761 5758 5756 5753 5750 5746 5743 5740 5736 5733 5730 5727 5724 5722 5719 5717 5714 5712 5709 5707 5705 5702 5700 5698 5696 5694 5692 5690 5688 5686 5684 5682 5680 5679 5678 5677 5676 5675 5675
5763 5762 5760 5757 5755 5752 5749 5746 5743 5740 5737 5734 5730 5727 5724 5721 5718 5716 5713 5711 5708 5706 5704 5701 5699 5697 5695 5693 5690 5688 5686 5684 5682 5680 5678 5677 5675 5673 5672 5671 5670 5669 5668
5756 5754 5752 5750 5748 5745 5742 5739 5736 5733 5730 5727 5724 5721 5718 5715 5712 5709 5707 5704 5702 5700 5697 5695 5693 5691 5689 5687 5684 5682 5680 5678 5676 5674 5672 5670 5669 5667 5666 5664 5663 5662 5661
5748 5747 5745 5743 5740 5737 5734 5731 5728 5725 5722 5719 5716 5713 5710 5707 5705 5702 5700 5697 5695 5693 5691 5688 5686 5684 5682 5680 5678 5676 5674 5671 5669 5667 5665 5664 5662 5660 5658 5657 5655 5654 5653
5739 5738 5736 5734 5732 5729 5726 5723 5720 5717 5714 5710 5708 5705 5702 5699 5697 5694 5692 5690 5687 5685 5683 5681 5679 5677 5674 5672 5670 5668 5666 5664 5662 5659 5657 5655 5654 5652 5650 5649 5647 5645 5644
5730 5728 5727 5725 5723 5720 5717 5714 5711 5708 5705 5702 5699 5696 5693 5691 5688 5686 5683 5681 5679 5677 5675 5673 5671 5668 5666 5664 5662 5659 5657 5655 5653 5650 5648 5646 5644 5642 5640 5639 5637 5636 5634
5719 5718 5717 5715 5713 5710 5707 5705 5702 5699 5696 5692 5689 5687 5684 5681 5679 5677 5674 5672 5670 5668 5666 5663 5661 5659 5657 5654 5652 5650 5647 5645 5642 5640 5638 5635 5633 5631 5629 5627 5626 5625 5623
5708 5707 5705 5704 5702 5699 5697 5694 5691 5688 5685 5682 5680 5677 5674 5672 5669 5667 5665 5662 5660 5658 5656 5653 5651 5648 5646 5644 5641 5638 5636 5633 5630 5628 5625 5623 5621 5618 5616 5615 5613 5611 5610
5696 5695 5694 5692 5690 5688 5685 5683 5680 5677 5674 5672 5669 5667 5664 5661 5659 5657 5654 5652 5649 5647 5645 5642 5639 5637 5634 5631 5628 5626 5623 5620 5617 5614 5611 5608 5606 5603 5601 5600 5598 5597 5595
5683 5683 5681 5680 5678 5676 5673 5671 5668 5665 5663 5660 5658 5655 5653 5650 5648 5645 5643 5640 5638 5635 5633 5630 5627 5624 5621 5617 5614 5610 5607 5604 5600 5597 5594 5592 5589 5586 5584 5582 5581 5579 5578
5670 5669 5668 5667 5665 5663 5661 5658 5656 5653 5651 5648 5646 5643 5641 5639 5636 5633 5631 5628 5626 5623 5620 5617 5613 5610 5606 5602 5598 5594 5590 5586 5582 5579 5576 5573 5570 5567 5564 5562 5561 5560 5559
5656 5656 5655 5653 5652 5650 5648 5645 5643 5641 5638 5636 5634 5631 5629 5626 5624 5621 5618 5616 5613 5610 5606 5602 5599 5595 5591 5586 5582 5578 5573 5568 5564 5560 5556 5553 5549 5546 5543 5541 5539 5538 5537